sat.trackr.live / text

‹ back to catalog

LEMUR-2-WOBLER

NORAD 67368 · 2026-004F

PAYLOAD ACTIVE UNKNOWN

§ Identity

Operator
Country
US
Launch date
2026-01-11
Launch site
AFWTR
Launch vehicle
Mass (kg)
RCS (m²)

Purposes: earth_obs

External: N2YO · Heavens-Above · Gunter

§ Orbital elements

Epoch: 2026-05-25T02:50:30.660288Z

Period
96.75 min
Inclination
97.8043°
Eccentricity
0.0007347
Mean motion
14.88323372 rev/d
Perigee alt
598.0 km
Apogee alt
608.3 km
Semi-major
6,981.3 km
B*
3.5031e-4
RAAN
144.1248°
Arg perigee
195.9490°
Mean anomaly
164.1496°
Rev number
1,986

§ Raw data

LEMUR-2-WOBLER1 67368U 26004F   26145.11841042  .00003188  00000+0  35031-3 0  99952 67368  97.8043 144.1248 0007347 195.9490 164.1496 14.88323372 19861

JSON: /api/v1/satellites/67368 · /tle

For live sub-satellite position, see the globe view (requires WebGL).

§ Visibility from observer

Set your observer location to see the next 7 days of passes ≥ 10°. The values pass through the URL so the page stays shareable.

No JS? Fill the form by hand. The geolocation button needs JavaScript.